[Iaude] MPEC F121: 2024 ED6 [a=1.76,e=0.44,i=2.0,H=24.1]

mpec at cfa.harvard.edu mpec at cfa.harvard.edu
Sun Mar 31 19:03:34 EDT 2024


M.P.E.C. 2024-F121                               Issued 2024 March 31, 23:02 UT

     The Minor Planet Electronic Circulars contain information on unusual
         minor planets, routine data on comets and natural satellites,
         and occasional editorial announcements.  They are published
    on behalf of Division F of the International Astronomical Union by the
          Minor Planet Center, Smithsonian Astrophysical Observatory,
                          Cambridge, MA 02138, U.S.A.
			  
             Prepared using the Tamkin Foundation Computer Network

                              MPC at CFA.HARVARD.EDU
            URL https://www.minorplanetcenter.net/    ISSN 1523-6714

                                    2024 ED6                                    


Observations:
     K24E06D  C2024 02 10.35619110 05 53.073+17 02 22.17         21.84GVEF121F52
     K24E06D  C2024 02 10.36980910 05 52.618+17 02 24.27         22.03GVEF121F52
     K24E06D  C2024 02 10.38346410 05 52.153+17 02 26.24         22.11GVEF121F52
     K24E06D  C2024 02 10.39708710 05 51.678+17 02 28.06         21.52GVEF121F52
     K24E06D  C2024 02 12.52559310 04 56.094+17 06 39.71         21.99GVEF121F52
     K24E06D  C2024 02 12.53724310 04 55.652+17 06 40.74         21.85GVEF121F52
     K24E06D  C2024 02 12.56055310 04 54.703+17 06 42.51         21.79GVEF121F52
     K24E06D*1C2024 03 05.20578809 47 38.231+17 05 01.10         20.16GVEF121G96
     K24E06D 1C2024 03 05.21094709 47 37.817+17 04 59.20         20.64GVEF121G96
     K24E06D 1C2024 03 05.21610109 47 37.331+17 04 57.72         20.92GVEF121G96
     K24E06D 1C2024 03 05.22124809 47 36.881+17 04 57.04         20.61GVEF121G96
     K24E06D 1C2024 03 28.24682 09 15 49.28 +06 55 30.5          19.6 GVEF121703
     K24E06D  C2024 03 30.24412409 10 35.691+03 30 09.84         18.45GVEF121F51
     K24E06D  C2024 03 31.24393709 07 13.560+01 14 09.69         18.92GVEF121F51
     K24E06D  C2024 03 31.24671709 07 12.650+01 13 44.31         18.26GVEF121F51
     K24E06D  C2024 03 31.33402409 06 44.513+01 00 29.23         18.33cVEF121T05
     K24E06D  C2024 03 31.33838209 06 43.123+00 59 49.42         18.46cVEF121T05
     K24E06D  C2024 03 31.34407509 06 41.292+00 58 57.50         18.54cVEF121T05
     K24E06D  C2024 03 31.35937609 06 36.449+00 56 35.81         18.95cVEF121T05
     K24E06D KB2024 03 31.58762 09 05 46.32 +00 19 22.2          18.8 GVEF121P13
     K24E06D KB2024 03 31.58977 09 05 49.01 +00 19 42.4          18.3 GVEF121O46
     K24E06D KB2024 03 31.59806 09 05 46.24 +00 18 21.8          18.5 GVEF121O46
     K24E06D KB2024 03 31.59875 09 05 42.80 +00 17 33.7          18.7 GVEF121P13
     K24E06D KB2024 03 31.60616 09 05 43.60 +00 17 03.3          17.9 GVEF121O46
     K24E06D KB2024 03 31.61560 09 05 37.54 +00 14 50.2          18.4 GVEF121P13
     K24E06D KB2024 03 31.62237 09 05 35.38 +00 13 43.5          18.7 GVEF121P13
     K24E06D KB2024 03 31.80794709 04 53.22 -00 17 28.2          18.6 GXEF121L76
     K24E06D KB2024 03 31.80895309 05 01.64 -00 17 27.9          18.4 GXEF121958
     K24E06D KB2024 03 31.81174409 05 00.74 -00 17 56.3          18.7 GXEF121958
     K24E06D KB2024 03 31.81453609 04 59.81 -00 18 24.3          18.4 GXEF121958
     K24E06D KB2024 03 31.81544509 04 50.77 -00 18 44.4          18.6 GXEF121L76
     K24E06D KB2024 03 31.82294309 04 48.42 -00 20 00.5          18.8 GXEF121L76

Observer details:
703 Catalina Sky Survey.  Observer J. K. Hogan.  Measurers B. Gray, D. Rankin,
    F. C. Shelly.  0.68-m Schmidt + 10K CCD.
958 Observatoire de Dax.  Observer P. Dupouy.  0.50-m f/4.5 Reflector + CMO.
F51 Pan-STARRS 1, Haleakala.  Observers J. Herman, T. Lowe, P. Minguez, A.
    Schultz, I. Smith.  Measurers K. Chambers, T. de Boer, J. Fairlamb, H.
    Gao, M. Huber, C.-C. Lin, E. Magnier, Y. Ramanjooloo, R. Wainscoat, R.
    Weryk.  1.8-m Ritchey-Chretien + CCD.
F52 Pan-STARRS 2, Haleakala.  Observers J. Herman, T. Lowe, P. Minguez, A.
    Schultz, I. Smith.  Measurers K. Chambers, T. de Boer, J. Fairlamb, H.
    Gao, M. Huber, C.-C. Lin, E. Magnier, Y. Ramanjooloo, R. Wainscoat, R.
    Weryk.  1.8-m Ritchey-Chretien + CCD.
G96 Mt. Lemmon Survey.  Observer G. J. Leonard.  Measurers T. Beuden, V. F.
    Carvajal, D. Fay, J. B. Fazekas, D. C. Fuls, A. R. Gibbs, A. D. Grauer, H.
    Groeller, J. K. Hogan, R. A. Kowalski, S. M. Larson, G. J. Leonard, D.
    Rankin, R. L. Seaman, F. C. Shelly, K. W. Wierzchos.  1.5-m reflector +
    10K CCD.
L76 Nomad Observatory, Kochevanchik.  Observer E. Romas.  0.25-m f/4 Newtonian
    + CMO.
O46 Daocheng Glacier Observatory.  Observer Z. Wang.  0.25-m f/8 reflector +
    CMO.
P13 Baihuashan Observatory, Beijing.  Observers Z. Wang, B. Liu.  Measurer Z.
    Wang.  0.28-m f/2.2 reflector + CMO.
T05 ATLAS-HKO, Haleakala.  Observers L. Denneau, R. Siverd, J. Tonry, H.
    Weiland.  Measurers L. Denneau, N. Erasmus, A. Fitzsimmons, J. Robinson,
    R. Siverd, J. Tonry, H. Weiland.  0.5-m Reflector + CCD.

Orbital elements:
2024 ED6                                                 Earth MOID = 0.0135 AU
Epoch 2024 Mar. 31.0 TT = JDT 2460400.5                 Veres                   
M 350.94684              (2000.0)            P               Q                  
n   0.42302226     Peri.  219.07725     -0.82850145     +0.55997879             
a   1.7574942      Node   354.97429     -0.50475510     -0.74910843             
e   0.4359595      Incl.    1.97385     -0.24250286     -0.35392134             
P   2.33           H   24.13          G   0.15           U   5                  
Residuals in seconds of arc
240210 F52  0.1-  0.1+    240328 703  0.8+  0.1+    240331 P13  0.2-  0.2-
240210 F52  0.1-  0.1+    240330 F51  0.1-  0.2-    240331 O46  0.5+  0.0
240210 F52  0.0   0.1+    240331 F51  0.3+  0.2+    240331 P13  0.0   0.3+
240210 F52  0.1-  0.1-    240331 F51  0.2-  0.1-    240331 P13  0.9-  0.3-
240212 F52  0.0   0.0     240331 T05  0.2-  0.5-    240331 L76  0.5+  0.5+
240212 F52  0.5+  0.0     240331 T05  0.0   0.2-    240331 958  0.6-  0.0
240212 F52  0.2+  0.3-    240331 T05  0.0   0.3+    240331 958  0.5-  0.0
240305 G96  0.2-  0.5+    240331 T05  0.7+  0.2-    240331 958  0.9-  0.4+
240305 G96  0.3+  0.2-    240331 P13  0.1-  0.2+    240331 L76  0.7-  0.6+
240305 G96  0.2-  0.5-    240331 O46  0.1-  0.1-    240331 L76  0.5-  0.8+
240305 G96  0.2-  0.1+    240331 O46  0.3-  0.2-

Ephemeris:
2024 ED6                 a,e,i = 1.76, 0.44, 2                   q = 0.9913
Date    TT    R. A. (2000) Decl.     Delta      r    Elong.  Phase     V
2024 03 01    09 51 57.7 +17 18 22   0.1577  1.1427   163.2    14.5    21.2
...
2024 03 16    09 35 04.3 +15 18 39   0.09241 1.0722   145.5    31.7    20.5
...
2024 03 24    09 24 04.0 +11 25 12   0.06117 1.0419   136.1    41.5    19.8
...
2024 03 30    09 11 15.9 +04 00 43   0.03880 1.0233   128.6    49.7    19.0
2024 03 31    09 08 01.7 +01 51 21   0.03522 1.0206   127.1    51.3    18.8
2024 04 01    09 04 10.4 -00 47 08   0.03170 1.0180   125.5    53.1    18.6
...
2024 04 07    07 54 53.2 -41 18 27   0.01495 1.0047   104.0    75.1    17.6
...
2024 04 15    22 38 06.8 -49 31 57   0.02911 0.9939    70.6   107.9    20.5
...
2024 04 30    21 57 10.8 -31 26 37   0.08328 0.9961    79.9    95.3    22.1

M. P. C. Staff               (C) Copyright 2024 MPC           M.P.E.C. 2024-F121





More information about the Iaude mailing list